Location: Evergreen Manor
(41.4083°N, 81.4939°W)
Time: 07:42:07
(UTC+00:00)

Meteor 1-13 Rocket - Pass Details

Date: 11 December 2019
Orbit: 830 x 912 km, 81.3° (Epoch: 24 January)

Event Time Altitude Azimuth Distance (km) Brightness Sun altitude
Rises 11:46:05 0° 348° (NNW) 3,386 7.0 -10.2°
Reaches altitude 10° 11:48:29 10° 348° (NNW) 2,451 6.3 -9.8°
Maximum altitude 11:54:01 78° 263° (W) 863 4.2 -8.8°
Drops below altitude 10° 11:59:37 10° 177° (S) 2,471 7.0 -7.9°
Sets 12:02:02 0° 176° (S) 3,414 7.8 -7.5°
